Location: Bathurst
(33.4193°S, 149.5775°E)
Time: 13:32:20
(UTC+11:00)

Envisat - Pass Details

Date: 30 January 2021
Orbit: 764 x 766 km, 98.1° (Epoch: 07 March)

Event Time Altitude Azimuth Distance (km) Brightness Sun altitude
Rises 04:31:51 0° 67° (ENE) 3,229 6.6 -20.6°
Reaches altitude 10° 04:36:04 10° 101° (E) 2,315 6.4 -19.9°
Maximum altitude 04:37:24 11° 117° (ESE) 2,249 6.6 -19.7°
Drops below altitude 10° 04:38:45 10° 132° (SE) 2,323 6.7 -19.5°
Sets 04:42:59 0° 166° (SSE) 3,261 7.1 -18.8°
